Regional Weather Roundup
Issued by NWS Midland/Odessa, TX

Home | Current Version | Previous Version | Text Only | Print | Product List | Glossary On
Versions: 1 2 3 4 5 6 7 8 9 10 11 12 13 14 15 16 17 18 19 20 21 22 23 24 25 26 27 28 29 30 31 32 33 34 35 36 37 38 39 40 41 42 43 44 45 46 47 48 49 50
000
ASUS44 KMAF 210910
RWRMAF
MIDLAND AREA WEATHER ROUNDUP
NATIONAL WEATHER SERVICE MIDLAND TX
400 AM CDT TUE APR 21 2015

...IN SOUTHWEST TEXAS AND SOUTHEAST NEW MEXICO...

CITY           SKY/WX    TMP DP  RH WIND       PRES   REMARKS
ALPINE         CLEAR     47  41  79 SW7       30.01F
ANDREWS        FAIR      49  39  69 NE5       29.95F
ARTESIA        CLEAR     48  41  76 S7        29.92F
BIG SPRING     CLEAR     54  37  53 E5        29.97S
CARLSBAD       CLEAR     49  42  77 N8        29.90F
DRYDEN           N/A     54  44  69 NE7       29.91F
FORT STOCKTON  CLEAR     52  40  63 S10       29.89F
GUAD PASS      CLEAR     61  33  35 W5        29.99S
HOBBS          PTCLDY    50  41  71 SE7       29.94F
MARFA          NOT AVBL
MIDLAND AIRPK  CLEAR     55  39  56 NE3       29.95R
MIDLAND INTL   CLEAR     54  40  59 N10       29.93R
ODESSA         CLEAR     54  40  59 S8        29.91S
PECOS          CLEAR     49  40  70 NE3       29.88S
PRESIDIO       FAIR      60  44  54 N9        29.89F
SEMINOLE       CLEAR     47  40  76 SW3       29.96S
SNYDER         CLEAR    N/A N/A N/A E7        29.96F
WINK           CLEAR     53  37  54 SE10      29.88F
$$
...OTHER STATIONS IN TEXAS...

CITY           SKY/WX    TMP DP  RH WIND       PRES   REMARKS
ABILENE        CLOUDY    55  43  63 SE8       29.98R
AMARILLO       RAIN      48  39  71 SE20      29.94S
AUSTIN         CLEAR     49  48  97 CALM      29.98F
BROWNSVILLE    CLOUDY    70  67  90 NE6       29.92F
CORPUS CHRISTI CLOUDY    63  59  87 SE6       29.94F
DALLAS FTW     PTCLDY    54  44  69 CALM      30.00R
DEL RIO        CLOUDY    60  48  64 E8        29.93F
EL PASO        CLEAR     63  22  20 SW8       29.90S
HOUSTON INT    CLOUDY    59  53  80 E3        29.97S
LUBBOCK        CLEAR     48  39  71 SE6       29.92S
SAN ANGELO     CLEAR     57  45  64 S7        29.93F
SAN ANTONIO    PTCLDY    55  49  80 NW5       29.98R
WACO           PTCLDY    52  49  89 CALM      30.00F
WICHITA FALLS  NOT AVBL
$$
...OTHER LOCATIONS IN NEW MEXICO...

CITY           SKY/WX    TMP DP  RH WIND       PRES   REMARKS
ALAMAGORDO     PTCLDY    54  27  35 E10       29.91F
ALBUQUERQUE    PTCLDY    54  26  34 CALM      29.97S
CANNON AFB     CLEAR     48  37  65 CALM      29.93S
CLOVIS         CLEAR     41  34  75 N7        29.93S WCI  36
HOLLOMAN AFB   PTCLDY    57  26  29 CALM      29.89F
ROSWELL        PTCLDY    49  41  74 S5        29.91S
RUIDOSO        CLEAR     48  23  37 W7        30.05S
SANTA FE       PTCLDY    42  24  49 N8        30.00R WCI  37
TRUTH OR CONSE PTCLDY    54  23  30 NW12      29.94F
TUCUMCARI      CLEAR     44  41  89 NW8       29.94R WCI  39
$$



USA.gov is the U.S. government's official web portal to all federal, state and local government web resources and services.